Location: Tafessasset
(32.5899°N, 5.4824°W)
Time: 14:04:57
(UTC+00:00)

DELTA 2 R/B (1) - Pass Details

Date: 18 February 2020
Orbit: 791 x 802 km, 39.6° (Epoch: 29 March)

Event Time Altitude Azimuth Distance (km) Brightness Sun altitude
Exits shadow 05:18:00 37° 217° (SW) 1,217 4.2 -22.7°
Maximum altitude 05:20:07 64° 150° (SSE) 875 3.8 -22.2°
Drops below altitude 10° 05:25:36 10° 70° (ENE) 2,354 7.0 -21.1°
Sets 05:28:06 0° 67° (ENE) 3,284 7.9 -20.5°
